This is the latest recevied weather packets stored in our database for station/object BM1CCR-13. If no packets are shown the sender has not sent any weather packets the latest 10 day(s).
| Time | Temp. | Humidity | Pressure | Rain* | Wind** | Luminosity | Snow |
|---|---|---|---|---|---|---|---|
| 1777908005 | 17.78° C | 87% | 1007.2 hPa | 0 mm | - | - | - |
| 1777907718 | 17.78° C | 87% | 1007.3 hPa | 0 mm | - | - | - |
| 1777907705 | 17.78° C | 87% | 1007.4 hPa | 0 mm | - | - | - |
| 1777907405 | 17.78° C | 86% | 1007.6 hPa | 0 mm | - | - | - |
| 1777907118 | 17.78° C | 85% | 1007.4 hPa | 0 mm | - | - | - |
| 1777907105 | 17.78° C | 85% | 1007.5 hPa | 0 mm | - | - | - |
| 1777906818 | 17.78° C | 86% | 1007.7 hPa | 0 mm | - | - | - |
| 1777906805 | 17.78° C | 86% | 1007.6 hPa | 0 mm | - | - | - |
| 1777906518 | 17.78° C | 85% | 1007.8 hPa | 0 mm | - | - | - |
| 1777906505 | 17.78° C | 85% | 1007.9 hPa | 0 mm | - | - | - |
| 1777906205 | 17.78° C | 84% | 1007.8 hPa | 0 mm | - | - | - |
| 1777905918 | 18.89° C | 84% | 1007.8 hPa | 0 mm | - | - | - |
| 1777905905 | 18.89° C | 84% | 1007.9 hPa | 0 mm | - | - | - |
| 1777905605 | 17.78° C | 84% | 1008 hPa | 0 mm | - | - | - |
| 1777905305 | 17.78° C | 84% | 1008.1 hPa | 0 mm | - | - | - |
| 1777905018 | 17.78° C | 84% | 1008.1 hPa | 0 mm | - | - | - |
| 1777905005 | 17.78° C | 84% | 1008 hPa | 0 mm | - | - | - |
| 1777904705 | 17.78° C | 84% | 1008.1 hPa | 0 mm | - | - | - |
| 1777904405 | 18.89° C | 82% | 1008 hPa | 0 mm | - | - | - |
| 1777904118 | 18.89° C | 79% | 1008 hPa | 0 mm | - | - | - |
| 1777904105 | 18.89° C | 79% | 1008.1 hPa | 0 mm | - | - | - |
| 1777903805 | 20° C | 83% | 1008.2 hPa | 0 mm | - | - | - |
| 1777903505 | 18.89° C | 84% | 1008.2 hPa | 0 mm | - | - | - |
| 1777903205 | 18.89° C | 84% | 1008.2 hPa | 0 mm | - | - | - |
| 1777902906 | 18.89° C | 83% | 1008.2 hPa | 0 mm | - | - | - |
* Rain latest hour (hover to see other rain measurements)
** Current wind speed in m/s (hover to see current wind gust speed)